TimeCDT,TemperatureF,Dew PointF,Humidity,Sea Level PressureIn,VisibilityMPH,Wind Direction,Wind SpeedMPH,Gust SpeedMPH,PrecipitationIn,Events,Conditions,WindDirDegrees,DateUTC
12:15 AM,37.4,28.4,70,30.20,10.0,ESE,9.2,-,N/A,,Overcast,120,2013-03-30 05:15:00
12:35 AM,37.4,28.4,70,30.20,10.0,ESE,9.2,-,N/A,,Overcast,120,2013-03-30 05:35:00
12:55 AM,37.4,28.4,70,30.20,10.0,ESE,8.1,-,N/A,,Overcast,110,2013-03-30 05:55:00
1:15 AM,37.4,28.4,70,30.20,10.0,ESE,9.2,-,N/A,,Overcast,120,2013-03-30 06:15:00
1:35 AM,37.4,28.4,70,30.19,10.0,ESE,9.2,-,N/A,,Overcast,120,2013-03-30 06:35:00
1:55 AM,37.4,28.4,70,30.18,10.0,ESE,9.2,-,N/A,,Overcast,120,2013-03-30 06:55:00
2:15 AM,37.4,28.4,70,30.17,10.0,ESE,10.4,-,N/A,,Mostly Cloudy,120,2013-03-30 07:15:00
2:35 AM,37.4,26.6,65,30.16,10.0,ESE,9.2,-,N/A,,Scattered Clouds,120,2013-03-30 07:35:00
2:55 AM,35.6,28.4,75,30.16,10.0,ESE,10.4,-,N/A,,Clear,120,2013-03-30 07:55:00
3:15 AM,35.6,28.4,75,30.15,10.0,ESE,11.5,-,N/A,,Clear,120,2013-03-30 08:15:00
3:35 AM,35.6,26.6,70,30.15,10.0,SE,11.5,-,N/A,,Clear,130,2013-03-30 08:35:00
3:55 AM,35.6,26.6,70,30.15,10.0,SE,10.4,-,N/A,,Clear,130,2013-03-30 08:55:00
4:15 AM,35.6,26.6,70,30.14,10.0,ESE,9.2,-,N/A,,Clear,120,2013-03-30 09:15:00
4:35 AM,35.6,26.6,70,30.13,10.0,ESE,10.4,-,N/A,,Clear,110,2013-03-30 09:35:00
4:55 AM,35.6,26.6,70,30.13,10.0,ESE,10.4,-,N/A,,Clear,120,2013-03-30 09:55:00
5:15 AM,35.6,26.6,70,30.13,10.0,SE,9.2,-,N/A,,Clear,130,2013-03-30 10:15:00
5:35 AM,35.6,26.6,70,30.12,10.0,SE,10.4,-,N/A,,Clear,130,2013-03-30 10:35:00
5:55 AM,35.6,26.6,70,30.11,10.0,ESE,11.5,-,N/A,,Clear,120,2013-03-30 10:55:00
6:15 AM,35.6,26.6,70,30.09,10.0,ESE,10.4,-,N/A,,Clear,120,2013-03-30 11:15:00
6:35 AM,35.6,26.6,70,30.09,10.0,SE,8.1,-,N/A,,Clear,130,2013-03-30 11:35:00
6:55 AM,35.6,26.6,70,30.08,10.0,SE,10.4,-,N/A,,Clear,130,2013-03-30 11:55:00
7:15 AM,35.6,28.4,75,30.08,10.0,SSE,9.2,-,N/A,,Clear,150,2013-03-30 12:15:00
7:35 AM,35.6,28.4,75,30.08,10.0,SSE,4.6,-,N/A,,Scattered Clouds,150,2013-03-30 12:35:00
7:55 AM,35.6,28.4,75,30.08,10.0,SSE,3.5,-,N/A,,Scattered Clouds,150,2013-03-30 12:55:00
8:15 AM,35.6,28.4,75,30.07,10.0,SSE,6.9,-,N/A,,Mostly Cloudy,150,2013-03-30 13:15:00
8:35 AM,37.4,30.2,75,30.07,10.0,South,9.2,-,N/A,,Mostly Cloudy,170,2013-03-30 13:35:00
9:15 AM,37.4,30.2,75,30.06,10.0,SSE,8.1,-,N/A,,Scattered Clouds,160,2013-03-30 14:15:00
9:35 AM,39.2,32.0,75,30.05,10.0,SSE,9.2,-,N/A,,Scattered Clouds,150,2013-03-30 14:35:00
9:55 AM,41.0,32.0,70,30.04,10.0,South,9.2,-,N/A,,Scattered Clouds,170,2013-03-30 14:55:00
10:15 AM,42.8,33.8,70,30.04,10.0,South,15.0,-,N/A,,Scattered Clouds,170,2013-03-30 15:15:00
10:35 AM,44.6,35.6,71,30.04,10.0,South,15.0,-,N/A,,Overcast,190,2013-03-30 15:35:00
10:55 AM,44.6,35.6,71,30.04,10.0,South,15.0,-,N/A,,Mostly Cloudy,190,2013-03-30 15:55:00
11:15 AM,44.6,35.6,71,30.03,10.0,South,16.1,-,N/A,,Clear,190,2013-03-30 16:15:00
11:35 AM,46.4,37.4,71,30.01,10.0,South,17.3,-,N/A,,Scattered Clouds,180,2013-03-30 16:35:00
11:55 AM,48.2,37.4,66,30.00,10.0,South,15.0,23.0,N/A,,Scattered Clouds,170,2013-03-30 16:55:00
12:15 PM,48.2,37.4,66,29.99,10.0,South,19.6,-,N/A,,Mostly Cloudy,180,2013-03-30 17:15:00
12:35 PM,50.0,37.4,62,29.99,10.0,South,20.7,-,N/A,,Overcast,190,2013-03-30 17:35:00
12:55 PM,50.0,37.4,62,29.98,10.0,SSW,18.4,27.6,N/A,,Overcast,200,2013-03-30 17:55:00
1:15 PM,50.0,39.2,66,29.98,10.0,SSW,18.4,24.2,N/A,,Overcast,200,2013-03-30 18:15:00
1:35 PM,50.0,41.0,71,29.97,10.0,South,17.3,-,N/A,,Overcast,190,2013-03-30 18:35:00
1:55 PM,50.0,41.0,71,29.96,10.0,South,18.4,-,N/A,,Overcast,190,2013-03-30 18:55:00
2:15 PM,50.0,41.0,71,29.95,10.0,SSW,16.1,-,N/A,,Overcast,200,2013-03-30 19:15:00
2:35 PM,50.0,39.2,66,29.95,10.0,SSW,23.0,-,N/A,,Overcast,200,2013-03-30 19:35:00
2:55 PM,50.0,41.0,71,29.94,10.0,SSW,20.7,25.3,N/A,,Overcast,200,2013-03-30 19:55:00
3:15 PM,50.0,41.0,71,29.93,10.0,SSW,17.3,25.3,N/A,,Overcast,210,2013-03-30 20:15:00
3:35 PM,50.0,41.0,71,29.92,10.0,South,12.7,-,N/A,,Overcast,190,2013-03-30 20:35:00
3:55 PM,50.0,41.0,71,29.90,10.0,SSW,12.7,-,N/A,,Overcast,200,2013-03-30 20:55:00
4:15 PM,50.0,41.0,71,29.90,10.0,SSW,13.8,-,N/A,,Overcast,200,2013-03-30 21:15:00
4:35 PM,50.0,41.0,71,29.89,10.0,SSW,15.0,-,N/A,,Overcast,200,2013-03-30 21:35:00
4:55 PM,50.0,41.0,71,29.88,10.0,South,11.5,16.1,N/A,,Overcast,190,2013-03-30 21:55:00
5:15 PM,50.0,41.0,71,29.89,10.0,SSW,12.7,-,N/A,,Overcast,200,2013-03-30 22:15:00
5:35 PM,48.2,39.2,71,29.89,10.0,SW,12.7,-,N/A,,Overcast,220,2013-03-30 22:35:00
5:55 PM,48.2,39.2,71,29.88,7.0,SSW,15.0,21.9,N/A,,Overcast,210,2013-03-30 22:55:00
6:15 PM,46.4,41.0,81,29.88,7.0,SSW,13.8,-,N/A,,Overcast,210,2013-03-30 23:15:00
6:55 PM,44.6,41.0,87,29.88,10.0,SSW,12.7,-,N/A,,Overcast,210,2013-03-30 23:55:00
7:15 PM,44.6,41.0,87,29.87,10.0,SSW,9.2,-,N/A,,Overcast,210,2013-03-31 00:15:00
7:35 PM,44.6,41.0,87,29.87,10.0,SW,8.1,-,N/A,,Overcast,220,2013-03-31 00:35:00
7:55 PM,44.6,41.0,87,29.87,7.0,SSW,9.2,-,N/A,,Overcast,210,2013-03-31 00:55:00
8:15 PM,44.6,41.0,87,29.86,7.0,SSW,11.5,-,N/A,,Overcast,210,2013-03-31 01:15:00
8:35 PM,44.6,41.0,87,29.87,4.0,SW,12.7,-,N/A,,Overcast,220,2013-03-31 01:35:00
8:55 PM,42.8,41.0,93,29.87,7.0,SW,10.4,-,N/A,,Overcast,230,2013-03-31 01:55:00
9:15 PM,44.6,41.0,87,29.87,10.0,SW,10.4,-,N/A,,Overcast,230,2013-03-31 02:15:00
9:35 PM,42.8,41.0,93,29.86,10.0,SW,8.1,-,N/A,,Overcast,230,2013-03-31 02:35:00
9:55 PM,42.8,41.0,93,29.86,10.0,WSW,8.1,-,N/A,,Overcast,240,2013-03-31 02:55:00
10:15 PM,42.8,41.0,93,29.86,7.0,WSW,6.9,-,N/A,,Overcast,240,2013-03-31 03:15:00
10:35 PM,42.8,41.0,93,29.86,7.0,WSW,5.8,-,N/A,,Overcast,240,2013-03-31 03:35:00
10:55 PM,42.8,41.0,93,29.86,7.0,West,10.4,-,N/A,,Overcast,260,2013-03-31 03:55:00
11:15 PM,42.8,41.0,93,29.86,5.0,West,8.1,-,N/A,,Overcast,270,2013-03-31 04:15:00
11:35 PM,42.8,41.0,93,29.85,5.0,West,6.9,-,N/A,,Overcast,280,2013-03-31 04:35:00
11:55 PM,42.8,41.0,93,29.86,7.0,WNW,10.4,-,N/A,,Overcast,290,2013-03-31 04:55:00